Location: DaltonSkyGazer Observatory
(42.4858°N, 73.1565°W)
Time: 21:39:48
(UTC-04:00)

Daily predictions for brighter satellites

Satellite Brightness Start Highest point End
(mag) Time Altitude Azimuth Time Altitude Azimuth Time Altitude Azimuth
Cosmos 1733 Rocket 3.4 20:39:50 10° SSW 20:44:12 71° W 20:48:35 10° N
Cosmos 1908 Rocket 3.8 20:40:51 10° S 20:45:07 51° E 20:49:26 10° NNE
SL-27 R/B 4.2 20:45:54 10° NW 20:49:14 34° WSW 20:52:28 10° SSW
Cosmos 1782 3.3 20:50:24 10° NNW 20:54:24 66° W 20:58:25 10° S
Cosmos 2341 Rocket 4.2 20:51:24 10° SSE 20:57:26 52° E 21:03:29 10° NNE
Cosmos 1833 Rocket 3.9 20:53:49 10° N 20:58:37 28° NE 21:03:23 10° ESE
Envisat 3.2 20:55:51 10° SSE 21:00:47 54° ENE 21:05:44 10° N
Cosmos 1844 Rocket 3.6 20:57:05 10° SW 21:02:38 56° WNW 21:08:11 10° NNE
Cosmos 1825 2.2 21:00:15 10° S 21:04:00 60° E 21:07:47 10° NNE
deb Chang Zheng 4 3.9 20:59:51 10° NNE 21:04:07 45° E 21:08:23 10° S
Cosmos 2278 Rocket 2.2 21:01:41 10° SSW 21:07:20 81° ESE 21:13:03 10° NNE
ERS-1 Rocket 3.0 21:04:49 10° SSE 21:09:51 86° WSW 21:14:56 10° NNW
Cosmos 1420 Rocket 4.0 21:08:10 10° S 21:13:20 61° ESE 21:18:29 10° NNE
Timation 2 Rocket 3.9 21:07:36 10° NNW 21:13:36 71° ENE 21:19:05 12° SE
H-2A R/B 2.1 21:09:51 10° SSE 21:14:05 65° ENE 21:18:15 10° N
Cosmos 1844 4.4 21:08:30 10° SW 21:14:12 61° WNW 21:19:58 10° NNE
ISS -2.1 21:11:53 10° WSW 21:15:01 44° NNW 21:18:11 10° NE
Cosmos 1140 Rocket 3.5 21:10:33 10° NNW 21:15:43 78° ENE 21:20:40 11° SSE
Okean 3 3.4 21:13:25 10° N 21:17:42 80° E 21:21:56 10° S
APEX 3.6 21:14:27 10° S 21:18:21 60° ESE 21:23:31 10° NNE
Cosmos 2154 Rocket 4.1 21:13:04 10° S 21:19:17 85° W 21:25:31 10° N
Cosmos 1939 Rocket 2.8 21:15:27 10° SSE 21:19:20 86° WSW 21:23:19 10° NNW
Cosmos 489 Rocket 4.5 21:15:32 10° NNW 21:21:46 89° E 21:27:54 10° SSE
Cosmos 1238 Rocket 2.7 21:18:45 10° N 21:22:11 82° W 21:26:18 10° S
COSMOS 2487 3.1 21:18:46 10° NNW 21:22:19 54° WSW 21:25:50 10° S
BREEZE-M TANK 4.4 21:00:35 10° W 21:22:53 75° N 21:27:21 10° ENE
Abrixas 3.1 21:20:57 10° SSW 21:23:45 35° SE 21:26:18 12° E
CZ-4B R/B 4.3 21:21:29 10° NE 21:25:40 28° E 21:28:23 17° SE
Cosmos 2082 Rocket 2.5 21:21:09 10° NNW 21:26:46 55° ENE 21:30:58 17° SE
SPOT 5 3.1 21:23:32 12° SSE 21:28:25 70° ENE 21:33:45 10° N
Lacrosse 5 2.9 21:34:39 10° S 21:38:37 23° ESE 21:42:36 10° ENE
Cosmos 1812 4.2 21:35:55 10° NNE 21:38:55 21° ENE 21:39:59 19° E
Cosmos 1184 Rocket 3.8 21:35:45 10° SSW 21:38:59 48° WNW 21:42:15 10° N
Intercosmos 25 2.8 21:38:00 13° S 21:41:01 72° E 21:44:10 10° NNE
Cosmos 2366 rocket 4.3 21:37:33 13° SSE 21:42:55 51° E 21:49:02 10° NNE
H-2A R/B 3.4 21:40:11 17° ESE 21:42:56 26° ENE 21:47:13 10° N
Cosmos 2297 3.7 21:40:20 10° SSW 21:46:02 85° ESE 21:51:48 10° NNE
MetOp-B 4.1 21:43:40 17° SSE 21:47:51 85° ENE 21:53:14 10° NNW
NOAA 11 4.4 21:46:39 22° SE 21:50:05 55° ENE 21:55:27 10° N
Meteor 1-14 Rocket 4.1 21:44:29 10° S 21:50:08 74° E 21:55:42 10° NNE
Okean 2 Rocket 3.7 21:49:16 10° SSW 21:53:37 58° W 21:57:58 10° N
BREEZE-M DEB (TANK) 3.8 21:55:29 10° NW 21:57:10 20° N 21:59:32 10° NE
SPOT 1/Viking Rocket 3.5 21:55:17 24° SSE 21:58:28 74° ENE 22:03:41 10° N
Cosmos 1242 Rocket 3.8 21:58:39 10° NNW 22:02:06 38° W 22:04:46 15° SSW
USA 229 DEB 3.8 21:55:24 10° NW 22:02:32 88° WSW 22:07:00 26° SSE
USA 229 3.8 21:55:30 10° NW 22:02:39 88° WSW 22:07:06 26° SSE
NOSS 8 (E) 4.3 21:59:43 10° SSW 22:03:10 82° SE 22:06:53 10° NE
Meteor 2-19 Rocket 4.5 22:05:32 23° SSE 22:09:19 60° E 22:15:19 10° NNE
ARGOS 3.1 22:09:06 28° SSE 22:12:02 85° ENE 22:17:26 10° NNW
YAOGAN 6 3.2 22:10:46 28° SSW 22:12:19 49° W 22:15:47 10° NNW
Cosmos 2369 Rocket 3.7 22:14:07 19° E 22:14:07 19° E 22:17:20 10° NE
CARTOSAT-1 4.4 22:12:41 31° E 22:13:40 36° ENE 22:17:37 10° N
Cosmos 2218 Rocket 4.1 22:08:18 10° S 22:14:42 81° W 22:21:09 10° N
Lacrosse 5 rocket 1.1 22:11:04 10° SSW 22:14:55 56° SE 22:18:38 10° NE
OAO 3 Rocket 3.9 22:10:43 10° WSW 22:15:11 34° S 22:15:30 34° SSE
SL-08 RB Rocket 3.7 22:15:38 36° SSE 22:17:30 82° ENE 22:22:10 10° N
CZ-4 R/B 3.7 22:13:32 10° NNE 22:18:11 67° ESE 22:20:06 34° S
Meteor 2-8 Rocket 4.4 22:13:06 10° N 22:19:18 87° E 22:22:44 28° S
Cosmos 1536 Rocket 3.7 22:20:48 10° NNW 22:25:17 72° W 22:27:02 36° S
AVUM R/B 3.8 22:22:15 10° NW 22:25:40 51° WSW 22:26:05 48° SW
Gbstr 26 Del rocket 3.3 22:20:56 10° NW 22:26:06 70° NNE 22:27:30 42° E
Cosmos 1727 Rocket 4.0 22:20:50 10° N 22:27:02 84° W 22:30:27 29° S
Landsat 7 3.7 22:28:19 45° SSE 22:29:46 76° ENE 22:34:32 10° N
Cosmos 1331 Rocket 3.8 22:27:09 26° SSW 22:30:05 80° ESE 22:35:16 10° NNE
IGS 5A 3.8 22:32:35 47° E 22:33:01 49° ENE 22:37:03 10° N
DELTA 2 DEB (DPAF) 4.0 22:34:27 53° SSE 22:35:28 83° ENE 22:39:59 10° NNW
CZ-4C R/B 3.2 22:36:09 65° SSE 22:36:42 84° E 22:40:55 10° NNW
Cosmos 1943 Rocket 4.4 22:40:11 10° ENE 22:40:11 10° ENE 22:40:19 10° ENE
Cosmos 1110 Rocket 4.1 22:35:43 17° SSW 22:39:43 74° WNW 22:44:56 10° NNE
ATLAS 2AS CENTAUR R/B 4.3 22:34:03 10° NNW 22:41:11 32° NE 22:46:59 14° E
Meteor 1-20 Rocket 4.2 22:39:25 27° SSW 22:42:35 78° W 22:48:07 10° N
Cosmos 1833 Rocket 3.4 22:37:24 10° NW 22:42:45 46° WSW 22:45:06 30° SSW
Cosmos 1400 Rocket 3.9 22:44:16 33° ENE 22:44:16 33° ENE 22:47:17 10° NNE
Terra 1.7 22:44:32 57° SE 22:45:28 77° ENE 22:50:14 10° N
Cosmos 1536 4.2 22:49:24 27° ENE 22:49:24 27° ENE 22:51:54 10° NNE
NOSS 3-1 (C) 4.0 22:41:49 10° NW 22:49:23 78° NE 22:53:00 37° SE
DMSP B5D2-2 4.0 22:46:48 10° NNE 22:52:02 74° ESE 22:53:13 53° S
ISS -0.4 22:49:46 10° NW 22:52:04 17° N 22:54:21 10° NE
Cosmos 1025 Rocket 3.6 22:47:53 10° N 22:52:00 43° ENE 22:52:00 43° ENE
USA 234 3.4 22:51:33 10° ENE 22:57:46 45° SE 22:58:07 44° SE
Cosmos 1821 Rocket 4.1 22:57:21 48° SE 22:58:48 60° E 23:04:54 10° NNE
Meteor 2-21 4.4 22:58:14 49° SSE 22:59:49 68° E 23:06:00 10° NNE
Cosmos 1809 Rocket 4.4 23:03:31 51° SSE 23:05:09 75° E 23:11:21 10° NNE
Cosmos 1300 Rocket 4.2 23:04:46 42° SW 23:05:50 53° W 23:10:13 10° N
Cosmos 1934 Rocket 4.0 23:05:08 51° SE 23:06:03 56° E 23:11:58 10° NNE
Spot 4 3.7 23:06:34 71° S 23:07:06 88° WSW 23:11:58 10° NNW
Cosmos 1486 Rocket 4.2 23:03:06 10° NNW 23:08:23 64° WSW 23:09:19 54° SSW
Cosmos 1354 Rocket 3.9 23:04:36 10° NNW 23:09:53 71° ENE 23:10:29 64° ESE
Okean 1 4.4 23:06:30 10° NNW 23:10:16 37° W 23:10:39 36° WSW
Cosmos 2082 Rocket 4.0 23:06:10 10° NW 23:10:24 22° W 23:12:50 17° SW
Cosmos 2285 Rocket 4.0 23:12:34 55° SSE 23:13:40 64° ESE 23:20:00 10° NNE
Okean 1 Rocket 3.8 23:13:53 43° WSW 23:14:44 49° WNW 23:19:05 10° N
Cosmos 1812 4.4 23:11:33 10° NNW 23:14:47 26° W 23:15:11 25° W
Cosmos 1602 4.2 23:16:36 59° NNW 23:16:36 59° NNW 23:19:53 10° N
Cosmos 2123 Rocket 4.1 23:10:43 10° N 23:16:55 60° E 23:17:57 53° ESE
ALOS 2 4.5 23:19:16 20° ENE 23:19:16 20° ENE 23:22:16 10° NNE
Lacrosse 5 2.2 23:16:09 10° WSW 23:21:12 64° NW 23:26:17 10° NE
Genesis I 4.2 23:21:07 42° W 23:21:44 46° NW 23:25:38 10° NNE
H-2A R/B 2.9 23:20:50 37° SW 23:22:06 43° W 23:27:08 10° NNW
Meteor 2-4 Rocket 3.5 23:20:19 10° N 23:25:50 79° E 23:26:19 72° SE
Cosmos 2263 4.4 23:27:22 54° E 23:27:22 54° E 23:32:29 10° NNE
Cosmos 1818 4.3 23:32:09 41° ENE 23:32:09 41° ENE 23:36:08 10° NE
Cosmos 1544 Rocket 4.2 23:36:48 50° NNE 23:36:48 50° NNE 23:40:07 10° NNE
Meteor 2-15 Rocket 4.3 23:33:12 10° N 23:39:22 83° E 23:40:05 71° SSE
SL-8 R/B 3.9 23:34:53 10° WNW 23:39:35 68° N 23:39:35 68° N
ASTEX 1 4.4 23:38:49 10° N 23:43:27 40° WNW 23:44:25 36° WSW
Meteor 2-14 Rocket 4.4 23:42:33 61° SSW 23:43:39 78° W 23:49:49 10° N
Cosmos 1633 4.1 23:44:52 36° NNW 23:44:52 36° NNW 23:47:21 10° N
Meteor 2-15 4.3 23:39:16 10° NNW 23:45:23 76° W 23:46:10 66° SSW
Iridium 4 Rocket 4.0 23:42:40 10° N 23:48:31 62° W 23:49:23 56° SW
Cosmos 1315 Rocket 4.0 23:51:14 40° NNW 23:51:14 40° NNW 23:53:58 10° N
Lacrosse 5 rocket 3.5 23:51:17 10° W 23:54:22 23° NNW 23:57:23 10° NNE
